Location: Madrid
(40.4167°N, 3.7036°W)
Time: 12:10:02
(UTC+00:00)

ISS - Pass Details

Date: 04 May 2025
Orbit: 416 x 419 km, 51.6° (Epoch: 14 May)

Event Time Altitude Azimuth Distance (km) Brightness Sun altitude
Exits shadow 02:34:32 - 325° (NW) 1,665 -0.5 -24.5°
Reaches altitude 10° 02:35:21 10° 336° (NNW) 1,496 -0.6 -24.4°
Maximum altitude 02:36:48 12° 2° (N) 1,367 -0.5 -24.3°
Drops below altitude 10° 02:38:15 10° 28° (NNE) 1,496 0.1 -24.1°
Sets 02:41:25 0° 60° (ENE) 2,360 1.2 -23.7°
